Back to catalog

DELTA 1 DEB

AliveUNKNOWN
NORAD 27727·DEBRIS·🇺🇸 United States

Launched Jul 29, 1976 from Vandenberg Space Force Base

Loading…

Next Passes (next 24 hours)

TLE

FreshSource: Space-Track

Epoch: Sep 14, 2026, 03:53 UTC

1 27727U 76077FS  26257.16218292  .00000013  00000-0  76183-3 0  9997
2 27727 102.7111 338.4032 0412629  22.0406   6.9077 11.68387849521979

Track DELTA 1 DEB in real time with AllMySat

Download on the App Store